Johnstown, PA

3:01 PM EST on February 21, 2017 (GMT -0500)
Johnstown-Cambria County

Weather History for KJST - August, 2014

Change the Weather History Date:

Friday, August 15, 2014

  Actual Average Record
Temperature  
Mean Temperature 56 °F 68 °F  
Max Temperature 65 °F 77 °F 95 °F (1947)
Min Temperature 46 °F 60 °F 38 °F (1964)
Degree Days  
Heating Degree Days 9 1  
Month to date heating degree days 22 11  
Since 1 June heating degree days 111 98  
Since 1 July heating degree days 71 24  
Cooling Degree Days 0 4  
Month to date cooling degree days 24 67  
Year to date cooling degree days 242 310  
Since 1 June cooling degree days 216 292  
Growing Degree Days 5 (Base 50)    
Moisture  
Dew Point 44 °F    
Average Humidity 65    
Maximum Humidity 82    
Minimum Humidity 48    
Precipitation  
Precipitation 0.00 in 0.13 in 2.22 in (1941)
Month to date precipitation 1.20 1.90  
Year to date precipitation 23.09 22.39  
Sea Level Pressure  
Sea Level Pressure 30.03 in    
Wind  
Wind Speed 9 mph (WSW)    
Max Wind Speed 18 mph    
Max Gust Speed 23 mph    
Visibility 10 miles    
Events      
T = Trace of Precipitation, MM = Missing Value Source: NWS Daily Summary

Daily Weather History Graph

Daily Weather History Graph

Search for Another Location

Airport or City:

Trip Planner

Search our weather history database for the weather conditions in past years. The results will help you decide how hot, cold, wet, or windy it might be!

Date:

Astronomy

Aug. 15, 2014 Rise Set
Actual Time 6:26 AM EDT 8:12 PM EDT
Civil Twilight 5:57 AM EDT 8:41 PM EDT
Nautical Twilight 5:21 AM EDT 9:16 PM EDT
Astronomical Twilight 4:43 AM EDT 9:54 PM EDT
Moon 11:12 PM EDT (8/15) 12:08 PM EDT (8/15)
Length of Visible Light 14h 44m
Length of Day
13h 46m
Waning Gibbous, 69% of the Moon is Illuminated
Aug 15
Waning Gibbous
Aug 17
Last Quarter
Aug 25
New
Sep 2
First Quarter
Sep 8
Full

Hourly Weather History & Observations

Time (EDT) Temp. Dew Point Humidity Pressure Visibility Wind Dir Wind Speed Gust Speed Precip Events Conditions
12:54 AM 50.0 °F 42.1 °F 74% 30.01 in 10.0 mi SW 3.5 mph - N/A   Clear
1:54 AM 50.0 °F 41.0 °F 71% 30.00 in 10.0 mi West 4.6 mph - N/A   Clear
2:54 AM 48.9 °F 41.0 °F 74% 30.00 in 10.0 mi West 8.1 mph - N/A   Clear
3:54 AM 48.0 °F 41.0 °F 77% 29.99 in 10.0 mi WSW 8.1 mph - N/A   Clear
4:54 AM 46.9 °F 41.0 °F 80% 30.00 in 10.0 mi WSW 8.1 mph - N/A   Clear
5:54 AM 46.9 °F 41.0 °F 80% 30.00 in 10.0 mi SW 5.8 mph - N/A   Clear
6:54 AM 48.0 °F 41.0 °F 77% 30.02 in 10.0 mi SW 5.8 mph - N/A   Clear
7:54 AM 51.1 °F 42.1 °F 71% 30.03 in 10.0 mi WSW 6.9 mph - N/A   Clear
8:54 AM 54.0 °F 44.1 °F 69% 30.04 in 10.0 mi WSW 8.1 mph - N/A   Clear
9:54 AM 57.9 °F 45.0 °F 62% 30.04 in 10.0 mi West 10.4 mph - N/A   Clear
10:54 AM 60.1 °F 46.9 °F 62% 30.04 in 10.0 mi West 11.5 mph - N/A   Clear
11:54 AM 63.0 °F 46.9 °F 56% 30.05 in 10.0 mi West 12.7 mph 19.6 mph N/A   Mostly Cloudy
12:54 PM 63.0 °F 45.0 °F 52% 30.04 in 10.0 mi West 12.7 mph - N/A   Mostly Cloudy
1:54 PM 64.0 °F 46.0 °F 52% 30.03 in 10.0 mi West 13.8 mph 20.7 mph N/A   Scattered Clouds
2:54 PM 64.0 °F 46.0 °F 52% 30.03 in 10.0 mi West 10.4 mph - N/A   Scattered Clouds
3:54 PM 64.9 °F 44.1 °F 47% 30.03 in 10.0 mi West 15.0 mph - N/A   Partly Cloudy
4:54 PM 64.0 °F 46.0 °F 52% 30.03 in 10.0 mi West 10.4 mph - N/A   Clear
5:54 PM 64.0 °F 45.0 °F 50% 30.03 in 10.0 mi West 12.7 mph - N/A   Scattered Clouds
6:54 PM 62.1 °F 45.0 °F 53% 30.02 in 10.0 mi West 6.9 mph - N/A   Partly Cloudy
7:54 PM 59.0 °F 46.0 °F 62% 30.03 in 10.0 mi WSW 5.8 mph - N/A   Mostly Cloudy
8:54 PM 57.0 °F 46.9 °F 69% 30.04 in 10.0 mi WSW 4.6 mph - N/A   Mostly Cloudy
9:54 PM 55.9 °F 45.0 °F 67% 30.05 in 10.0 mi SW 6.9 mph - N/A   Partly Cloudy
10:54 PM 55.0 °F 45.0 °F 69% 30.04 in 10.0 mi WSW 4.6 mph - N/A   Clear
11:54 PM 55.0 °F 45.0 °F 69% 30.04 in 10.0 mi SW 4.6 mph - N/A   Clear